Погода в Паустове

Россия / Владимирская область     56°07′02″N   42°10′15″E
темп.,
°C
ветер,
м/с
пор.,
м/с
влажн.,
%
обл.,
%
осадки,
мм/ч
давл.,
гПа
погр.,
м
18 мая, вт
вт1800:00+17вюв39849 0.0 1014149
03:00+15вюв258140 0.0 101481
06:00+17вюв2773100 0.0 1014143
09:00+25юв474634 0.0 1013415
12:00+28юв5103432 0.0 10131833
15:00+29юв58335 0.0 10132613
18:00+25вюв410535 0.0 1012572
21:00+20вюв414665 0.0 1012389
19 мая, ср
ср1900:00+19вюв415662 0.0 1012350
03:00+17вюв415630 0.0 1011372
06:00+18вюв4156465 0.0 1012457
09:00+24вюв513495 0.0 1011671
12:00+28юв612373 0.0 10111545
15:00+28юв5124154 0.0 10112747
18:00+25вюв612588 0.0 10101208
21:00+21вюв6156996 0.0 1010659
20 мая, чт
чт2000:00+20вюв5166651 0.0 1009600
03:00+19вюв415630 0.0 1009639
06:00+19вюв413695 0.0 1009651
09:00+22юв69608 0.0 10091108
12:00+24ююв595371 0.1 10091963
15:00+21ююв486753 1.9 10091195
18:00+20ю4765100 0.1 10081073
21:00+15ю2383100 0.1 100962
21 мая, пт
пт2100:00+13ю259196 0.0 1008110
03:00+12ю2697100 0.0 1008142
06:00+14ю368824 0.0 1008284
09:00+14ююз3784100 0.2 1009393
12:00+15юз4884100 1.1 1010731
15:00+16зюз697628 2.1 10111190
18:00+14з597195 0.3 10141023
21:00+11зюз3882100 0.3 1016292
22 мая, сб
сб2200:00+10юз2587100 0.0 1017101
03:00+10ююз2285100 0.0 101828
06:00+11ю2486100 0.1 1018118
09:00+11ссв1296100 5.7 1019148
12:00+10в3897100 5.4 1019359
15:00+10всв3796100 5.8 1019341
18:00+12св3591100 0.0 1018374
21:00+9всв269885 0.0 1019158